sat.trackr.live / text

‹ back to catalog

QIANFAN-191

NORAD 69409 · 2026-125J

PAYLOAD ACTIVE UNKNOWN

§ Identity

Operator
Country
PRC
Launch date
2026-06-05
Launch site
WSC
Launch vehicle
Mass (kg)
RCS (m²)

External: N2YO · Heavens-Above · Gunter

§ Orbital elements

Epoch: 2026-09-20T04:47:33.427680Z

Period
106.59 min
Inclination
88.9881°
Eccentricity
0.0002040
Mean motion
13.51032936 rev/d
Perigee alt
1,066.9 km
Apogee alt
1,070.0 km
Semi-major
7,446.6 km
B*
4.3347e-5
RAAN
270.3488°
Arg perigee
102.3460°
Mean anomaly
257.7920°
Rev number
1,477

§ Raw data

QIANFAN-1911 69409U 26125J   26263.19969245  .00000040  00000+0  43347-4 0  99962 69409  88.9881 270.3488 0002040 102.3460 257.7920 13.51032936 14770

JSON: /api/v1/satellites/69409 · /tle

For live sub-satellite position, see the globe view (requires WebGL).

§ Visibility from observer

Set your observer location to see the next 7 days of passes ≥ 10°. The values pass through the URL so the page stays shareable.

No JS? Fill the form by hand. The geolocation button needs JavaScript.